Directory Listing
Index of /dewikivoyage/20260301/

Index of /dewikivoyage/20260301/


../
dewikivoyage-20260301-all-titles-in-ns0.gz         01-Mar-2026 14:39    176K
dewikivoyage-20260301-all-titles.gz                01-Mar-2026 14:40    691K
dewikivoyage-20260301-babel.sql.gz                 01-Mar-2026 14:27    2158
dewikivoyage-20260301-category.sql.gz              01-Mar-2026 14:27     76K
dewikivoyage-20260301-categorylinks.sql.gz         01-Mar-2026 14:26      3M
dewikivoyage-20260301-change_tag.sql.gz            01-Mar-2026 14:27      3M
dewikivoyage-20260301-change_tag_def.sql.gz        01-Mar-2026 14:27    1422
dewikivoyage-20260301-externallinks.sql.gz         01-Mar-2026 14:26      6M
dewikivoyage-20260301-geo_tags.sql.gz              01-Mar-2026 14:27    451K
dewikivoyage-20260301-image.sql.gz                 01-Mar-2026 14:26    105K
dewikivoyage-20260301-imagelinks.sql.gz            01-Mar-2026 14:26      4M
dewikivoyage-20260301-iwlinks.sql.gz               01-Mar-2026 14:27      3M
dewikivoyage-20260301-langlinks.sql.gz             01-Mar-2026 14:26    591K
dewikivoyage-20260301-linktarget.sql.gz            01-Mar-2026 14:26      4M
dewikivoyage-20260301-md5sums.json                 01-Mar-2026 15:56    3144
dewikivoyage-20260301-md5sums.txt                  01-Mar-2026 15:56    2934
dewikivoyage-20260301-page.sql.gz                  01-Mar-2026 14:27      3M
dewikivoyage-20260301-page_props.sql.gz            01-Mar-2026 14:27      1M
dewikivoyage-20260301-page_restrictions.sql.gz     01-Mar-2026 14:27     33K
dewikivoyage-20260301-pagelinks.sql.gz             01-Mar-2026 14:26      4M
dewikivoyage-20260301-pages-articles-multistrea..> 01-Mar-2026 14:35    429K
dewikivoyage-20260301-pages-articles-multistrea..> 01-Mar-2026 14:35     69M
dewikivoyage-20260301-pages-articles.xml.bz2       01-Mar-2026 14:32     67M
dewikivoyage-20260301-pages-articles.xml.bz2.in..> 01-Mar-2026 14:31    184K
dewikivoyage-20260301-pages-logging.xml.gz         01-Mar-2026 14:40      9M
dewikivoyage-20260301-pages-meta-current.xml.bz2   01-Mar-2026 14:37     81M
dewikivoyage-20260301-pages-meta-history.xml.7z    01-Mar-2026 15:55    313M
dewikivoyage-20260301-pages-meta-history.xml.bz2   01-Mar-2026 15:44      1G
dewikivoyage-20260301-pages-meta-history.xml.bz..> 01-Mar-2026 14:46    163M
dewikivoyage-20260301-protected_titles.sql.gz      01-Mar-2026 14:27    3254
dewikivoyage-20260301-redirect.sql.gz              01-Mar-2026 14:27    135K
dewikivoyage-20260301-runsettings.txt              01-Mar-2026 13:35      28
dewikivoyage-20260301-sha1sums.json                01-Mar-2026 15:56    3449
dewikivoyage-20260301-sha1sums.txt                 01-Mar-2026 15:56    3238
dewikivoyage-20260301-site_stats.sql.gz            01-Mar-2026 14:26     842
dewikivoyage-20260301-siteinfo-namespaces.json.gz  01-Mar-2026 14:39    6787
dewikivoyage-20260301-siteinfo2-namespacesv2.js..> 01-Mar-2026 14:39    7021
dewikivoyage-20260301-sites.sql.gz                 01-Mar-2026 14:27     23K
dewikivoyage-20260301-stub-articles.xml.gz         01-Mar-2026 14:00      5M
dewikivoyage-20260301-stub-meta-current.xml.gz     01-Mar-2026 14:00     10M
dewikivoyage-20260301-stub-meta-history.xml.gz     01-Mar-2026 14:00    128M
dewikivoyage-20260301-templatelinks.sql.gz         01-Mar-2026 14:26      4M
dewikivoyage-20260301-user_former_groups.sql.gz    01-Mar-2026 14:27     930
dewikivoyage-20260301-user_groups.sql.gz           01-Mar-2026 14:27    1958
dewikivoyage-20260301-wbc_entity_usage.sql.gz      01-Mar-2026 14:27     16M
dumpruninfo.json                                   01-Mar-2026 15:56    2562
dumpruninfo.txt                                    01-Mar-2026 15:56    2202
dumpspecialfiles.json                              01-Mar-2026 15:56     133
dumpstatus.json                                    01-Mar-2026 15:56     12K
md5sums-dewikivoyage-20260301-all-titles-in-ns0..> 01-Mar-2026 14:40      77
md5sums-dewikivoyage-20260301-all-titles.gz.txt    01-Mar-2026 14:40      70
md5sums-dewikivoyage-20260301-babel.sql.gz.txt     01-Mar-2026 14:27      69
md5sums-dewikivoyage-20260301-category.sql.gz.txt  01-Mar-2026 14:27      72
md5sums-dewikivoyage-20260301-categorylinks.sql..> 01-Mar-2026 14:26      77
md5sums-dewikivoyage-20260301-change_tag.sql.gz..> 01-Mar-2026 14:27      74
md5sums-dewikivoyage-20260301-change_tag_def.sq..> 01-Mar-2026 14:27      78
md5sums-dewikivoyage-20260301-externallinks.sql..> 01-Mar-2026 14:26      77
md5sums-dewikivoyage-20260301-geo_tags.sql.gz.txt  01-Mar-2026 14:27      72
md5sums-dewikivoyage-20260301-image.sql.gz.txt     01-Mar-2026 14:26      69
md5sums-dewikivoyage-20260301-imagelinks.sql.gz..> 01-Mar-2026 14:26      74
md5sums-dewikivoyage-20260301-iwlinks.sql.gz.txt   01-Mar-2026 14:27      71
md5sums-dewikivoyage-20260301-langlinks.sql.gz.txt 01-Mar-2026 14:26      73
md5sums-dewikivoyage-20260301-linktarget.sql.gz..> 01-Mar-2026 14:26      74
md5sums-dewikivoyage-20260301-page.sql.gz.txt      01-Mar-2026 14:27      68
md5sums-dewikivoyage-20260301-page_props.sql.gz..> 01-Mar-2026 14:27      74
md5sums-dewikivoyage-20260301-page_restrictions..> 01-Mar-2026 14:27      81
md5sums-dewikivoyage-20260301-pagelinks.sql.gz.txt 01-Mar-2026 14:26      73
md5sums-dewikivoyage-20260301-pages-articles-mu..> 01-Mar-2026 14:35      97
md5sums-dewikivoyage-20260301-pages-articles-mu..> 01-Mar-2026 14:35      91
md5sums-dewikivoyage-20260301-pages-articles.xm..> 01-Mar-2026 14:32      79
md5sums-dewikivoyage-20260301-pages-logging.xml..> 01-Mar-2026 14:40      77
md5sums-dewikivoyage-20260301-pages-meta-curren..> 01-Mar-2026 14:37      83
md5sums-dewikivoyage-20260301-pages-meta-histor..> 01-Mar-2026 15:56      82
md5sums-dewikivoyage-20260301-pages-meta-histor..> 01-Mar-2026 15:44      83
md5sums-dewikivoyage-20260301-protected_titles...> 01-Mar-2026 14:27      80
md5sums-dewikivoyage-20260301-redirect.sql.gz.txt  01-Mar-2026 14:27      72
md5sums-dewikivoyage-20260301-site_stats.sql.gz..> 01-Mar-2026 14:26      74
md5sums-dewikivoyage-20260301-siteinfo-namespac..> 01-Mar-2026 14:39      84
md5sums-dewikivoyage-20260301-siteinfo2-namespa..> 01-Mar-2026 14:39      87
md5sums-dewikivoyage-20260301-sites.sql.gz.txt     01-Mar-2026 14:27      69
md5sums-dewikivoyage-20260301-stub-articles.xml..> 01-Mar-2026 14:00      77
md5sums-dewikivoyage-20260301-stub-meta-current..> 01-Mar-2026 14:00      81
md5sums-dewikivoyage-20260301-stub-meta-history..> 01-Mar-2026 14:00      81
md5sums-dewikivoyage-20260301-templatelinks.sql..> 01-Mar-2026 14:26      77
md5sums-dewikivoyage-20260301-user_former_group..> 01-Mar-2026 14:27      82
md5sums-dewikivoyage-20260301-user_groups.sql.g..> 01-Mar-2026 14:27      75
md5sums-dewikivoyage-20260301-wbc_entity_usage...> 01-Mar-2026 14:27      80
report.json                                        01-Mar-2026 15:56    6473
sha1sums-dewikivoyage-20260301-all-titles-in-ns..> 01-Mar-2026 14:40      85
sha1sums-dewikivoyage-20260301-all-titles.gz.txt   01-Mar-2026 14:40      78
sha1sums-dewikivoyage-20260301-babel.sql.gz.txt    01-Mar-2026 14:27      77
sha1sums-dewikivoyage-20260301-category.sql.gz.txt 01-Mar-2026 14:27      80
sha1sums-dewikivoyage-20260301-categorylinks.sq..> 01-Mar-2026 14:26      85
sha1sums-dewikivoyage-20260301-change_tag.sql.g..> 01-Mar-2026 14:27      82
sha1sums-dewikivoyage-20260301-change_tag_def.s..> 01-Mar-2026 14:27      86
sha1sums-dewikivoyage-20260301-externallinks.sq..> 01-Mar-2026 14:26      85
sha1sums-dewikivoyage-20260301-geo_tags.sql.gz.txt 01-Mar-2026 14:27      80
sha1sums-dewikivoyage-20260301-image.sql.gz.txt    01-Mar-2026 14:26      77
sha1sums-dewikivoyage-20260301-imagelinks.sql.g..> 01-Mar-2026 14:26      82
sha1sums-dewikivoyage-20260301-iwlinks.sql.gz.txt  01-Mar-2026 14:27      79
sha1sums-dewikivoyage-20260301-langlinks.sql.gz..> 01-Mar-2026 14:26      81
sha1sums-dewikivoyage-20260301-linktarget.sql.g..> 01-Mar-2026 14:26      82
sha1sums-dewikivoyage-20260301-page.sql.gz.txt     01-Mar-2026 14:27      76
sha1sums-dewikivoyage-20260301-page_props.sql.g..> 01-Mar-2026 14:27      82
sha1sums-dewikivoyage-20260301-page_restriction..> 01-Mar-2026 14:27      89
sha1sums-dewikivoyage-20260301-pagelinks.sql.gz..> 01-Mar-2026 14:26      81
sha1sums-dewikivoyage-20260301-pages-articles-m..> 01-Mar-2026 14:35     105
sha1sums-dewikivoyage-20260301-pages-articles-m..> 01-Mar-2026 14:35      99
sha1sums-dewikivoyage-20260301-pages-articles.x..> 01-Mar-2026 14:32      87
sha1sums-dewikivoyage-20260301-pages-logging.xm..> 01-Mar-2026 14:40      85
sha1sums-dewikivoyage-20260301-pages-meta-curre..> 01-Mar-2026 14:37      91
sha1sums-dewikivoyage-20260301-pages-meta-histo..> 01-Mar-2026 15:56      90
sha1sums-dewikivoyage-20260301-pages-meta-histo..> 01-Mar-2026 15:44      91
sha1sums-dewikivoyage-20260301-protected_titles..> 01-Mar-2026 14:27      88
sha1sums-dewikivoyage-20260301-redirect.sql.gz.txt 01-Mar-2026 14:27      80
sha1sums-dewikivoyage-20260301-site_stats.sql.g..> 01-Mar-2026 14:26      82
sha1sums-dewikivoyage-20260301-siteinfo-namespa..> 01-Mar-2026 14:39      92
sha1sums-dewikivoyage-20260301-siteinfo2-namesp..> 01-Mar-2026 14:39      95
sha1sums-dewikivoyage-20260301-sites.sql.gz.txt    01-Mar-2026 14:27      77
sha1sums-dewikivoyage-20260301-stub-articles.xm..> 01-Mar-2026 14:00      85
sha1sums-dewikivoyage-20260301-stub-meta-curren..> 01-Mar-2026 14:00      89
sha1sums-dewikivoyage-20260301-stub-meta-histor..> 01-Mar-2026 14:00      89
sha1sums-dewikivoyage-20260301-templatelinks.sq..> 01-Mar-2026 14:26      85
sha1sums-dewikivoyage-20260301-user_former_grou..> 01-Mar-2026 14:27      90
sha1sums-dewikivoyage-20260301-user_groups.sql...> 01-Mar-2026 14:27      83
sha1sums-dewikivoyage-20260301-wbc_entity_usage..> 01-Mar-2026 14:27      88
status.html                                        01-Mar-2026 15:56     119
tableinfo.json                                     01-Mar-2026 09:18    1515